RH
60 64 66 67 67 66 65 63 62 61 60 62 62 62 62 65 70 78 86 89 89 86 80 75 73 74 77 82 87 90 93 94 94 94 95 96 96 97 97 97 97 97 97 97 97 98 98 98 98 97 97 96 96 95 95 94 93 92 92 91 92 95 97 97 95 90 84 85 89 93 96 98 99 100 100 99 99 98 97 95 93 92 89 86 80 74
63 64 65 66 66 65 65 63 60 58 57 58 58 60 60 60 63 70 80 86 88 88 85 80 76 73 73 76 81 86 90 92 93 94 94 95 95 96 97 97 97 97 97 96 96 97 98 98 98 97 95 96 96 96 95 94 94 92 92 92 92 94 96 97 96 92 85 82 82 84 88 92 96 99 100 100 99 98 97 94 93 92 90 89 85 80
64 65 64 66 66 65 64 62 59 56 55 55 56 57 58 57 58 62 72 78 84 88 88 86 82 77 73 74 76 80 84 88 90 92 93 93 94 94 96 97 97 97 97 96 95 95 97 97 98 97 96 96 96 96 95 94 93 93 92 92 93 94 94 96 96 95 91 85 82 82 83 86 90 94 97 98 98 97 96 93 92 92 91 89 88 85
64 66 68 71 70 66 63 60 58 56 55 55 56 56 55 54 54 56 62 72 79 85 88 90 88 84 78 74 74 74 78 81 84 88 90 91 92 92 93 95 97 97 97 96 95 94 94 95 96 96 95 95 95 96 94 94 93 92 92 92 93 93 94 94 94 95 95 90 87 86 85 85 86 87 90 92 92 93 93 92 92 91 91 90 89 88
65 69 74 77 73 67 62 60 59 58 57 56 55 54 53 52 51 51 54 66 74 82 86 89 90 88 84 78 74 73 74 76 78 81 85 88 89 90 90 93 95 96 97 96 95 94 92 92 93 93 93 93 94 94 94 93 92 92 92 92 92 92 92 92 92 92 94 92 90 88 86 86 85 85 85 86 86 87 88 89 90 90 90 90 89 89
70 74 81 80 75 68 62 61 60 59 58 56 54 53 52 52 50 48 47 58 68 77 82 86 89 90 88 82 76 72 71 71 73 76 79 83 86 88 89 90 92 95 96 96 96 94 92 91 90 90 90 91 92 92 92 92 92 91 90 90 90 91 91 90 90 90 91 91 90 88 86 86 86 86 86 85 84 83 84 85 86 88 88 88 88 88
74 79 85 83 78 72 66 64 62 60 58 57 56 54 53 53 50 46 42 51 62 73 78 81 86 89 89 85 79 74 70 69 69 71 73 76 81 85 88 88 90 92 95 96 96 95 93 91 90 88 88 88 88 89 90 90 90 90 90 89 89 89 89 89 89 89 89 89 89 88 86 86 86 87 87 86 85 84 84 85 86 86 87 88 88 88
77 82 86 85 81 76 68 66 65 64 62 60 58 56 54 52 49 46 42 47 58 70 76 77 81 86 89 88 84 77 71 68 67 67 68 71 76 81 86 87 88 89 92 94 95 95 94 92 90 88 85 84 83 84 86 87 88 88 87 86 86 86 86 86 86 86 87 87 87 87 86 86 85 85 85 85 85 86 87 88 88 88 88 88 88 87
80 84 86 86 84 80 73 71 69 67 66 64 62 58 54 50 48 45 42 44 54 66 74 74 77 82 89 90 88 83 76 70 66 64 64 66 70 76 83 86 86 86 87 90 92 94 94 93 92 90 86 83 81 80 81 83 84 83 82 81 80 80 80 81 82 82 84 84 85 84 84 84 83 83 83 83 84 86 88 89 90 90 90 90 89 88
84 86 86 86 86 84 82 79 76 73 69 67 64 61 57 52 48 44 40 40 47 60 74 74 74 78 88 92 92 88 82 74 67 63 60 61 66 72 79 84 86 85 83 84 86 88 91 92 92 92 91 88 85 82 80 79 79 78 76 74 73 73 73 74 74 76 78 80 81 81 81 81 80 80 80 81 82 84 86 87 88 90 90 90 90 90
85 86 86 86 86 86 86 85 83 80 76 72 68 63 58 52 47 42 38 37 42 54 70 75 74 76 86 92 92 90 86 76 68 62 58 58 62 68 74 81 85 85 82 80 79 80 82 86 90 92 92 90 88 84 80 77 74 72 68 66 64 64 64 64 66 68 71 74 76 77 77 78 78 78 79 80 81 83 85 86 88 89 90 90 89 88
86 86 86 86 86 86 86 86 84 81 76 72 66 61 56 50 45 41 37 35 38 46 62 73 76 76 82 90 92 92 90 79 69 62 58 57 59 64 70 77 84 87 84 80 76 73 70 74 79 84 87 86 85 82 78 74 69 64 60 57 55 55 56 56 57 59 62 66 69 72 73 74 76 77 78 79 80 82 85 86 87 86 86 84 82 81
86 86 86 86 86 85 84 84 81 77 72 67 63 60 56 52 46 42 37 34 34 39 52 68 77 81 82 88 92 93 93 83 73 64 59 57 58 60 66 72 80 87 88 83 78 72 65 63 65 70 76 78 78 77 74 72 67 62 55 50 48 47 48 48 49 50 53 58 61 65 68 71 74 76 77 78 80 82 84 86 85 82 78 74 72 71
86 85 85 85 84 83 82 80 79 77 73 71 70 69 66 60 52 44 38 33 31 33 41 59 73 82 86 88 91 93 94 89 80 70 62 58 58 60 64 68 74 83 90 88 82 76 68 60 56 58 65 71 72 72 71 68 64 60 55 49 46 44 43 42 42 44 46 50 54 58 62 67 70 74 76 77 78 80 82 82 80 77 72 66 63 64
86 86 86 86 85 83 80 79 79 80 81 81 79 76 70 61 53 44 38 33 30 29 32 47 63 76 85 88 90 93 94 92 86 78 66 61 60 60 62 65 70 76 85 89 87 82 76 64 54 51 60 67 68 68 71 68 62 58 55 50 46 44 44 42 40 40 42 44 48 52 56 62 66 71 74 76 77 78 78 77 74 71 66 61 59 60
86 86 86 86 86 85 83 81 82 84 85 83 78 70 61 54 49 44 39 35 31 28 26 36 50 64 77 83 89 92 94 93 90 85 73 65 61 61 62 63 66 70 76 84 87 87 84 74 61 52 54 61 63 66 79 78 72 64 60 54 48 45 46 43 42 41 42 43 45 47 51 57 62 67 71 74 76 76 76 73 70 66 63 59 57 58
86 86 86 86 86 86 86 84 84 85 85 80 73 65 58 56 54 50 44 40 34 29 26 28 37 50 64 78 87 92 94 93 92 90 81 70 63 60 60 62 63 66 69 76 81 86 88 84 74 61 52 54 56 64 82 87 83 76 72 65 57 51 49 47 45 45 45 45 45 46 48 53 58 64 68 72 74 74 73 70 67 64 60 58 56 56
85 86 86 86 86 87 87 86 86 86 85 80 75 70 66 64 60 55 47 40 35 30 26 25 28 37 50 67 81 90 94 93 93 92 87 74 65 60 60 60 61 63 65 69 74 79 85 88 84 74 58 48 49 60 79 86 87 86 84 77 70 62 56 53 50 49 49 48 47 46 46 50 56 61 66 69 71 72 70 67 65 62 60 57 56 57
85 86 87 87 87 87 87 87 88 87 86 82 80 76 72 65 58 50 43 39 35 32 29 25 24 28 37 54 71 85 94 94 94 93 92 79 69 62 60 60 60 62 63 65 68 72 78 85 87 83 71 52 44 50 67 76 82 86 88 83 77 70 63 59 56 54 52 51 49 47 46 49 54 58 64 67 69 69 68 65 63 61 58 57 57 58
85 86 87 87 87 87 88 88 88 88 87 85 82 77 71 63 56 49 44 40 38 35 32 26 23 23 28 40 56 73 90 94 95 95 94 88 78 68 62 61 60 61 62 63 64 66 71 78 84 86 81 62 47 41 48 58 69 78 83 81 78 73 67 63 60 58 56 53 50 47 46 48 52 57 62 65 67 67 65 63 62 60 58 57 58 60
85 86 87 87 87 88 88 88 88 88 88 85 80 75 70 65 60 55 51 46 40 36 31 26 23 22 24 31 42 57 78 92 96 95 96 94 87 76 66 63 62 62 63 63 62 62 64 70 78 85 88 75 57 42 39 45 55 66 74 74 74 71 69 66 63 60 58 54 50 47 46 47 51 55 60 63 64 64 63 62 61 60 58 58 60 61
85 86 86 87 87 87 88 88 88 88 87 82 77 73 70 66 62 58 54 47 41 35 30 28 26 24 23 24 31 43 65 85 93 95 95 95 92 84 73 66 64 64 64 63 62 60 60 62 69 78 86 83 71 55 41 40 46 56 63 66 67 67 66 66 64 61 58 53 50 47 45 46 49 53 58 61 63 63 62 62 61 61 60 60 63 65
86 86 86 87 87 87 87 87 87 87 86 81 77 74 71 66 62 59 54 48 42 38 36 34 32 27 22 20 23 32 52 76 90 94 95 95 94 90 83 73 68 64 63 63 61 60 57 58 62 69 76 81 79 70 54 43 42 48 55 59 61 62 63 64 64 63 60 54 50 48 46 45 47 51 56 60 61 62 62 63 63 63 62 64 66 69
86 85 86 87 87 87 86 86 87 86 84 82 79 76 71 66 62 59 55 50 46 42 40 36 30 26 21 18 18 24 37 63 82 92 94 95 95 94 90 80 70 64 61 61 60 58 57 57 58 62 68 73 77 78 72 52 44 43 49 54 57 58 59 60 62 64 63 58 54 50 48 46 46 49 54 58 61 62 63 65 66 66 66 67 70 74
86 85 86 86 86 86 86 86 86 85 83 80 76 72 66 63 60 56 53 48 44 40 36 31 27 24 22 19 18 19 24 48 70 86 92 93 94 93 90 80 72 64 61 59 58 57 57 58 58 60 63 66 70 74 79 68 55 46 46 53 56 56 56 58 60 63 66 62 58 54 50 48 47 48 52 57 60 63 64 67 69 70 70 70 74 77
86 86 85 85 85 85 86 86 84 83 80 76 72 67 63 61 58 53 48 44 41 38 34 31 30 29 28 24 20 18 19 34 55 75 87 90 91 90 88 80 72 65 60 57 55 54 56 56 57 58 62 64 66 69 74 76 69 58 47 54 57 57 55 56 58 61 66 66 62 58 54 51 50 50 52 56 60 63 66 70 72 74 74 74 77 80
86 86 86 86 85 85 85 84 82 79 76 72 68 64 62 59 55 50 47 45 43 40 37 36 36 35 33 27 22 19 16 23 40 62 80 86 88 89 88 83 76 67 60 55 52 52 53 54 56 58 62 64 66 66 68 74 76 70 57 58 60 58 55 55 56 59 64 68 66 61 57 54 53 54 54 57 60 63 66 71 74 77 76 78 80 83
86 86 87 87 86 86 85 83 81 78 74 70 66 62 58 54 50 48 46 46 45 42 40 38 37 35 30 26 22 19 16 15 26 44 68 78 84 89 90 89 82 73 63 57 53 51 51 52 54 58 62 65 66 65 66 71 74 73 66 63 62 60 56 54 55 58 63 68 68 65 60 57 56 57 58 60 62 63 65 70 75 79 80 80 82 85
86 86 86 86 86 86 84 82 80 76 73 69 65 60 56 51 48 46 45 44 42 39 37 36 34 32 29 28 25 22 17 13 16 28 50 64 76 84 89 92 89 82 73 65 58 53 50 50 52 56 61 65 66 65 65 70 73 72 67 66 66 64 58 55 55 57 60 68 71 70 64 60 59 58 59 62 63 64 64 68 74 79 82 83 84 86
86 86 86 86 86 84 82 79 76 74 70 67 64 60 56 51 48 45 42 39 36 35 36 36 34 32 31 30 26 22 18 14 12 17 30 48 62 74 84 89 91 90 86 79 70 60 53 51 52 56 61 64 65 65 64 68 72 72 66 66 66 65 59 57 57 58 60 67 72 74 70 65 62 60 60 61 63 64 65 68 74 79 83 85 86 88
86 86 86 86 84 82 79 76 73 70 68 66 63 60 57 52 47 42 38 35 34 35 36 36 36 34 32 28 24 20 18 16 14 12 16 34 48 62 76 84 89 92 94 90 82 72 62 56 55 56 60 64 65 66 65 67 70 71 67 65 64 63 58 56 57 58 60 64 71 76 76 70 65 62 61 61 62 64 66 69 74 78 82 86 89 90
86 86 86 85 83 80 76 72 69 67 64 62 61 59 56 52 47 42 38 36 36 35 35 35 35 34 32 28 24 22 23 22 19 14 10 23 36 51 68 78 85 90 94 93 88 81 73 64 58 57 60 63 66 68 68 66 68 70 68 64 62 60 55 53 55 58 60 61 66 73 78 74 70 65 63 62 62 64 66 69 73 77 80 86 90 93
86 86 85 84 83 81 78 75 72 69 65 61 58 56 54 51 47 43 40 38 36 34 32 32 33 33 32 29 27 26 26 25 21 16 11 16 26 41 58 70 79 86 92 94 92 87 79 69 61 58 60 62 68 72 74 70 68 68 68 64 60 57 52 50 52 55 58 60 62 68 76 77 74 70 67 64 62 62 64 69 74 80 84 88 92 95
86 86 85 84 84 83 83 82 80 77 72 65 60 55 51 49 47 44 42 39 36 33 31 31 32 32 32 31 29 28 26 23 21 18 15 14 21 32 46 62 73 81 88 93 94 91 84 74 66 61 60 62 70 77 80 75 70 67 67 65 61 56 51 47 48 52 56 58 60 65 72 77 77 75 73 71 67 64 63 68 76 84 88 90 92 94
84 84 84 84 83 82 82 83 82 80 77 71 64 58 52 48 46 44 42 38 36 33 31 31 31 31 32 32 30 28 25 23 23 22 20 15 18 26 36 52 65 76 86 92 94 93 88 83 76 70 64 66 75 84 87 81 74 68 65 64 61 57 50 46 45 48 53 56 60 65 71 76 78 78 79 80 79 76 70 72 78 86 90 90 92 93
82 82 82 82 80 79 79 79 79 79 78 75 70 64 56 50 46 43 41 39 36 34 32 31 30 30 30 30 30 28 26 26 26 25 23 18 18 22 30 43 58 71 82 90 93 94 92 91 88 83 74 74 82 90 91 85 77 70 64 62 60 56 50 44 43 45 50 54 58 63 72 74 76 77 80 83 88 90 85 82 83 87 90 90 90 92
78 79 80 80 78 77 77 77 78 78 78 76 73 68 60 54 48 44 41 39 37 34 32 30 30 29 29 30 30 29 28 27 26 24 23 21 19 21 27 38 52 66 79 88 92 94 94 95 94 92 87 84 88 92 92 85 78 71 64 61 58 55 50 43 42 42 47 51 55 61 72 74 74 74 73 78 86 94 96 93 92 92 92 94 94 95
74 75 76 76 76 76 76 78 78 78 78 76 74 71 65 58 52 47 42 40 38 35 32 30 29 29 29 30 30 30 28 26 25 24 23 23 21 21 26 36 48 61 76 85 90 92 94 95 96 96 94 92 92 92 90 82 76 70 65 61 58 54 48 42 39 40 45 49 54 60 68 72 72 70 67 69 77 88 97 97 97 96 96 97 98 98
70 70 72 72 73 74 76 78 78 78 77 76 74 71 67 62 57 51 46 42 39 36 33 31 30 29 29 29 30 30 29 27 26 26 26 24 23 23 27 36 45 57 72 83 88 90 92 94 96 96 96 95 94 92 88 79 72 66 64 60 56 51 44 38 36 38 42 47 52 58 64 68 70 68 67 62 64 74 90 94 96 97 97 98 98 98
66 66 66 68 70 72 74 75 76 76 76 76 74 70 66 62 58 54 49 44 40 37 34 32 30 28 28 28 29 30 30 29 30 32 33 28 26 26 30 36 44 54 67 80 86 88 89 92 94 96 96 96 96 93 87 79 72 65 62 60 54 48 42 36 34 35 39 44 50 56 61 66 68 68 66 62 60 62 73 84 90 93 95 95 95 95
62 62 63 65 68 70 71 72 74 76 78 77 75 72 66 61 57 53 50 45 42 38 35 32 30 29 28 28 28 30 31 32 34 37 39 34 36 39 36 38 43 50 61 76 83 86 86 89 92 95 95 96 96 94 90 83 76 68 64 60 54 48 41 35 32 32 36 42 47 53 58 65 68 69 66 64 61 60 60 71 80 88 92 94 94 92
61 61 62 64 66 68 70 73 75 77 78 77 75 72 67 62 56 52 48 45 42 38 35 33 31 30 28 28 28 30 33 35 39 43 45 42 50 57 53 45 43 47 56 70 78 84 84 85 88 92 95 94 95 94 92 87 80 72 66 61 55 48 42 37 33 32 34 38 44 50 56 63 68 69 66 64 63 62 60 64 71 78 86 90 92 93
61 61 62 63 65 68 70 73 75 76 76 74 73 70 66 61 56 51 47 44 42 38 36 34 32 31 30 29 30 32 35 39 44 51 56 58 66 73 73 61 52 47 50 64 74 80 82 81 83 88 94 93 94 95 95 89 82 75 67 61 55 48 40 38 34 32 33 36 40 46 53 60 63 65 64 64 64 64 64 65 68 73 79 84 88 90
60 61 62 64 66 68 71 72 73 72 72 72 71 69 65 60 55 51 46 43 40 38 35 34 33 32 30 29 30 32 36 42 49 58 68 73 78 82 84 78 67 56 50 60 68 75 79 78 79 83 90 92 92 94 96 92 86 78 69 63 56 49 42 39 36 34 33 34 38 42 48 53 58 60 62 62 62 63 64 65 67 70 76 79 82 83
61 62 64 66 68 70 71 70 69 68 70 71 70 68 63 58 54 50 47 44 41 38 36 35 35 34 33 31 31 33 37 44 53 64 76 84 89 90 90 88 80 69 60 60 64 70 76 76 76 79 86 90 90 92 95 92 88 81 72 64 57 50 44 40 37 34 32 33 35 39 43 48 53 58 60 62 62 62 63 64 66 68 70 73 74 74
64 64 66 67 68 68 67 66 66 67 70 70 70 67 62 58 54 50 48 45 42 40 39 38 37 37 37 35 34 34 38 46 56 68 81 89 92 92 91 90 88 81 72 65 64 67 72 74 74 76 82 88 89 89 94 92 90 84 74 66 58 51 46 42 39 35 32 32 34 36 40 45 51 57 62 63 64 64 62 63 64 64 65 65 65 65
63 63 64 65 65 64 64 64 65 68 71 71 69 66 61 57 53 50 48 46 45 43 42 42 41 40 40 38 36 36 40 48 58 69 82 89 92 92 90 91 92 90 84 74 69 68 69 72 73 74 80 86 87 88 92 94 92 87 79 68 60 52 47 45 42 38 35 34 34 36 39 43 49 55 60 62 62 62 62 62 62 63 63 62 60 60
60 61 61 62 62 62 62 64 67 70 72 71 68 65 61 57 53 50 49 48 48 47 46 47 46 44 43 41 39 39 42 51 60 71 83 89 91 91 90 90 92 93 92 86 80 75 73 73 73 74 78 85 86 86 87 93 94 90 84 73 63 55 49 47 43 40 38 37 37 38 39 42 46 52 58 60 60 60 60 60 61 62 64 64 63 62
58 58 60 60 60 61 63 66 70 73 74 72 68 65 62 58 55 52 50 51 51 51 51 51 50 49 47 45 43 42 45 53 62 73 84 89 91 91 91 90 91 92 94 92 90 86 81 78 76 76 79 87 88 86 84 90 94 93 88 78 68 59 52 49 46 42 40 40 40 40 40 41 44 49 56 57 58 57 58 60 62 65 69 71 72 73
58 58 58 59 60 62 65 69 73 76 76 72 69 66 64 61 58 56 54 54 55 56 56 56 54 53 51 49 47 46 48 56 66 76 85 90 91 90 90 90 90 91 92 93 93 92 90 86 82 81 85 90 90 88 84 88 92 94 92 83 74 64 56 52 48 44 42 41 41 41 40 40 42 47 54 56 56 55 57 60 65 70 76 81 85 87
58 58 58 60 61 63 66 71 74 77 76 73 70 68 66 65 62 60 59 60 61 62 62 61 58 56 54 53 51 50 51 60 69 78 87 90 91 90 90 90 90 90 91 92 93 94 93 92 90 88 90 92 92 90 85 86 90 94 94 88 79 70 60 55 50 46 43 42 42 42 42 40 41 45 53 56 56 56 58 64 69 76 83 90 93 95
Wind_Speed
12 14 16 20 23 27 30 34 36 38 39 41 42 43 43 41 38 34 30 26 26 27 32 38 45 51 56 59 58 54 50 47 44 41 37 36 39 43 49 54 57 58 58 58 59 58 57 56 55 54 54 54 53 53 53 53 52 51 50 48 46 44 40 33 29 28 28 29 32 34 33 32 34 39 43 45 46 46 45 45 44 43 42 40 39 39
10 12 14 18 22 25 28 32 35 37 38 39 40 41 41 40 39 36 32 29 27 27 29 33 38 44 50 55 58 58 54 50 45 41 37 35 36 41 46 51 55 56 57 58 59 59 58 56 55 54 53 53 54 53 53 53 52 51 50 49 48 46 43 36 30 27 26 25 24 24 25 25 27 30 33 36 39 40 41 41 42 42 41 40 39 39
8 11 14 17 21 24 27 30 33 35 37 37 38 38 39 39 38 37 34 32 30 29 28 29 31 36 42 49 54 58 58 55 51 45 39 35 35 38 43 49 54 57 57 58 59 60 59 57 55 53 52 52 52 53 53 52 52 51 50 49 48 47 45 40 34 29 27 26 24 23 22 22 23 24 26 28 30 33 35 37 39 40 40 40 39 39
8 11 13 15 19 23 25 28 30 32 33 34 35 36 36 36 36 36 35 34 33 31 29 28 28 31 35 41 47 53 57 58 56 51 45 39 36 35 39 46 53 57 58 59 60 61 61 59 56 53 52 50 50 52 52 51 51 50 50 49 48 46 45 43 39 34 30 28 27 26 25 25 24 24 25 27 28 30 32 34 36 38 39 40 40 39
9 11 11 13 16 21 24 26 27 28 29 31 32 33 34 34 35 35 35 34 33 33 31 29 28 29 31 35 40 45 50 54 55 54 51 45 40 36 36 41 49 57 60 60 60 61 61 59 56 54 53 50 50 51 51 50 50 49 49 48 47 45 44 43 40 37 33 31 30 29 28 27 27 27 27 28 30 31 32 33 34 36 37 39 40 40
9 10 11 12 15 19 22 23 24 25 26 28 29 31 31 32 32 33 34 34 34 34 33 32 30 29 29 32 36 40 44 47 50 52 52 50 46 41 37 37 43 52 59 61 61 61 60 58 56 54 53 52 51 50 50 49 49 48 47 47 45 44 43 42 40 38 36 34 32 31 30 30 29 29 29 30 31 32 32 33 33 34 35 37 38 40
9 11 12 13 15 18 19 21 22 23 24 25 26 28 29 29 29 30 32 34 35 35 34 33 32 30 29 29 32 35 38 41 44 46 48 49 49 46 41 37 38 45 54 59 61 61 60 59 57 55 54 52 51 50 50 49 48 47 46 46 44 43 42 41 40 38 37 36 34 33 33 32 31 31 31 31 32 33 33 33 33 34 34 35 37 38
10 12 14 14 15 16 18 20 21 22 23 23 23 24 26 27 27 29 31 33 34 35 35 34 33 32 31 29 30 31 34 37 39 40 42 45 47 47 44 38 35 38 46 55 59 60 60 59 57 56 54 52 50 50 50 49 48 47 46 45 44 43 42 40 39 38 37 36 35 35 34 33 33 32 32 32 32 33 33 33 33 34 34 35 35 36
11 14 16 16 15 16 17 19 20 21 21 21 22 22 24 25 26 28 29 31 33 34 35 35 34 33 32 30 29 29 31 33 35 37 39 41 44 45 43 39 35 34 37 45 52 57 59 58 57 55 54 52 51 50 50 50 49 48 47 46 44 43 42 41 40 39 38 37 36 35 35 34 33 33 32 32 32 32 32 32 33 34 34 35 35 36
13 16 18 17 16 16 16 17 18 20 21 21 22 22 23 24 25 26 27 29 32 34 35 36 35 34 33 32 30 29 29 31 33 34 36 39 41 43 43 40 36 33 32 34 39 46 53 56 56 54 53 52 51 50 50 50 49 48 47 46 45 44 43 42 40 39 38 37 37 36 35 35 34 33 32 32 31 31 30 31 31 32 33 34 34 34
14 17 19 18 17 17 16 16 17 19 21 21 21 21 21 22 22 24 25 28 31 34 35 36 36 36 33 32 32 31 30 31 32 33 35 37 40 42 42 40 38 36 34 32 32 34 41 48 52 53 52 51 50 50 49 49 49 49 48 47 46 45 44 43 41 40 39 38 37 37 36 35 34 33 32 32 31 30 29 29 29 30 31 31 31 32
15 19 20 20 18 18 18 17 17 18 20 20 21 21 21 22 22 23 25 27 30 33 35 36 37 36 35 34 33 33 31 31 32 33 33 35 38 40 41 40 39 38 37 36 34 33 34 40 45 49 50 50 50 50 50 49 49 48 48 48 47 46 45 44 43 41 40 39 38 37 36 35 35 34 33 32 31 30 29 28 27 27 27 27 28 29
15 19 21 21 19 18 19 19 18 19 20 21 22 23 23 24 23 23 24 26 29 32 35 36 37 37 37 36 35 34 33 31 31 32 32 33 35 38 40 40 40 40 40 40 38 37 36 37 41 44 47 48 49 49 49 49 47 46 46 47 47 47 46 45 44 43 41 40 40 39 38 36 35 34 33 32 31 30 29 28 26 25 24 24 25 28
14 19 22 21 19 18 18 19 20 21 22 22 23 23 23 23 22 22 23 25 27 31 34 36 38 39 39 37 36 35 34 32 30 30 30 31 33 36 38 40 40 40 41 42 42 40 39 39 40 43 46 46 47 47 47 46 44 43 43 45 45 45 45 45 44 43 42 42 41 40 39 38 37 35 34 33 32 31 30 28 27 25 24 24 25 28
12 18 21 22 20 18 18 20 21 21 21 21 21 20 19 19 20 21 22 24 26 29 32 35 38 40 40 39 38 36 35 34 31 29 28 30 32 34 36 38 39 39 40 42 43 43 41 40 41 43 46 47 46 45 43 41 40 39 40 42 43 44 44 43 43 43 43 42 42 41 40 39 38 37 35 34 32 31 30 28 27 26 25 25 26 28
10 15 20 21 20 19 19 20 21 20 19 19 19 19 19 19 21 22 23 24 26 27 30 34 38 40 41 40 39 37 35 35 34 31 30 29 30 32 34 35 37 39 40 41 42 43 43 42 42 43 45 46 47 44 39 36 35 36 37 39 41 42 42 42 42 42 42 42 42 42 41 40 39 38 37 35 34 32 30 29 27 26 26 26 28 29
9 12 17 19 20 19 20 21 21 20 19 19 19 20 21 21 21 22 23 24 24 26 28 33 37 40 42 41 40 38 36 36 36 35 32 30 30 31 32 34 36 38 39 40 41 42 43 43 43 42 43 44 45 44 38 35 33 33 34 36 38 40 40 41 41 41 41 42 42 42 42 41 41 39 38 36 35 33 31 29 28 27 27 28 29 30
8 10 14 18 19 20 20 21 20 20 19 19 20 20 20 19 18 19 20 22 23 25 27 31 35 39 42 42 42 40 38 36 36 36 35 32 30 31 32 34 36 37 39 40 40 41 42 44 44 44 42 42 43 43 40 36 34 33 32 33 35 37 38 39 40 40 41 41 41 42 42 42 41 40 39 38 36 34 32 30 29 28 29 30 30 31
7 9 12 16 18 20 20 21 21 20 19 19 19 18 17 17 16 17 19 21 23 25 27 29 32 37 40 42 43 42 41 38 36 36 36 34 32 31 32 33 35 37 39 40 40 41 41 43 44 44 43 42 41 41 41 39 36 34 32 32 33 35 37 38 39 39 40 40 41 41 42 42 42 41 40 39 37 35 33 31 30 30 30 31 32 32
6 8 12 15 17 19 20 20 20 19 19 18 18 17 17 17 17 18 19 21 22 24 25 26 29 34 38 41 43 42 41 39 36 35 36 36 35 33 33 34 35 37 39 40 41 41 41 41 42 44 45 44 42 41 41 40 38 35 33 32 32 33 35 36 37 38 38 39 40 41 42 43 42 42 41 39 38 36 34 32 31 31 31 32 33 33
6 9 12 15 17 17 17 18 18 17 17 17 17 17 17 17 17 18 18 19 20 21 22 24 27 31 35 39 42 42 42 40 37 36 36 36 36 35 34 35 36 38 39 41 41 42 41 40 40 42 44 45 44 42 41 40 38 36 34 33 32 32 33 34 35 36 37 38 40 41 42 43 43 42 42 40 39 37 34 33 32 32 32 32 33 34
6 9 12 15 15 15 14 15 15 16 16 16 17 17 17 17 17 17 17 17 18 20 22 24 26 29 32 37 40 42 42 41 40 38 36 36 36 36 36 37 38 39 40 40 41 41 41 40 40 40 42 44 45 44 42 40 39 37 35 34 33 33 33 33 33 34 35 37 39 40 42 43 43 43 42 41 39 37 35 34 33 32 32 33 33 34
6 8 12 14 14 12 11 12 14 15 16 16 17 17 17 17 17 17 17 17 18 19 21 22 24 26 29 33 37 41 42 43 42 40 37 36 36 37 37 38 39 40 40 40 40 40 41 41 40 39 39 41 43 44 43 41 38 37 35 34 33 33 33 33 33 33 34 36 37 39 41 42 43 43 43 42 40 38 36 35 34 33 33 33 34 34
7 9 12 13 13 11 10 11 13 15 16 15 15 15 16 16 17 17 17 17 18 18 19 19 20 22 26 30 35 39 42 44 44 42 39 38 37 37 37 39 39 40 40 40 40 40 40 41 40 39 38 38 39 42 43 42 39 36 34 33 33 33 34 34 34 33 33 35 36 38 39 41 42 43 43 42 41 39 38 36 35 34 34 33 34 35
7 9 11 13 13 11 10 10 12 14 14 14 13 14 15 16 16 16 17 17 17 17 17 18 19 22 25 29 33 37 42 45 46 44 42 40 38 37 37 39 39 40 40 40 40 40 40 40 40 39 38 37 37 38 41 42 41 37 34 33 32 33 34 35 35 34 33 34 35 37 38 40 41 42 43 43 42 41 39 38 36 35 34 34 35 36
8 9 11 12 13 11 10 10 11 12 13 13 13 13 14 15 16 17 17 17 17 17 18 19 20 22 24 27 30 35 40 44 46 46 44 41 38 37 38 40 40 40 40 40 40 40 40 39 39 39 38 37 36 36 37 40 42 40 35 33 32 34 35 35 35 35 34 33 34 36 37 38 40 41 43 43 43 42 40 39 38 36 35 35 35 37
9 9 10 11 12 11 10 10 10 11 11 11 12 12 13 14 15 16 17 17 17 18 18 18 18 18 20 22 27 31 36 41 45 46 45 41 38 37 38 40 40 40 40 40 40 40 40 40 39 38 38 37 36 36 36 37 40 41 37 33 33 34 35 36 36 36 34 33 33 35 36 38 39 40 42 43 43 43 42 40 39 37 36 36 36 38
10 10 10 11 11 10 10 10 10 10 10 10 11 11 12 13 14 15 16 16 16 16 16 16 15 16 18 21 25 28 33 38 43 46 46 42 39 38 38 39 39 39 39 40 41 41 41 40 40 39 38 37 37 36 36 36 38 38 36 34 33 35 36 37 37 37 35 34 33 34 35 37 38 39 40 42 43 43 42 41 40 39 38 37 38 39
11 11 11 11 11 11 10 10 10 10 10 10 10 10 11 12 13 14 14 14 14 15 15 16 16 16 18 20 22 25 29 34 40 44 46 44 42 40 39 38 38 38 39 39 40 41 40 41 40 40 39 38 37 37 37 37 37 37 35 33 33 35 37 38 38 38 37 35 34 34 35 36 37 39 40 41 42 42 43 42 42 41 39 39 39 40
11 11 11 11 11 11 11 10 10 10 10 10 10 10 10 11 12 12 13 13 14 15 16 16 16 16 17 18 19 21 25 30 36 41 45 45 44 42 40 38 38 38 38 38 39 40 41 41 41 41 40 39 38 38 38 38 38 37 35 33 33 36 38 39 39 39 38 37 36 35 35 36 37 38 40 41 41 42 43 43 43 42 42 41 40 41
10 11 11 11 11 10 10 10 10 9 9 9 9 9 9 10 10 11 12 14 15 15 16 16 16 16 16 17 18 21 24 27 31 36 42 45 45 44 42 40 39 38 38 37 38 39 41 42 42 41 40 39 39 39 39 39 39 39 37 34 34 36 38 39 40 40 40 39 37 36 36 36 37 38 39 40 41 42 43 43 44 43 43 42 42 42
9 9 10 10 9 9 9 8 8 8 8 8 9 9 9 9 10 11 13 14 14 14 15 15 15 16 17 18 19 20 22 23 27 32 39 43 45 45 44 42 40 39 37 37 38 39 40 41 42 42 41 40 40 39 39 39 40 40 39 36 35 36 38 39 40 40 41 40 39 38 36 37 37 38 39 40 41 42 43 44 44 44 44 44 43 44
7 7 8 8 8 7 7 7 6 6 6 7 7 8 9 9 10 11 12 13 13 14 14 15 16 16 17 18 18 19 19 20 23 28 35 40 43 45 46 44 42 39 37 36 37 38 40 41 42 42 42 41 41 40 40 40 41 41 41 38 37 37 38 39 40 41 41 41 40 39 38 37 37 38 39 39 40 42 43 44 44 45 45 44 44 44
6 6 7 7 7 6 6 6 5 5 4 5 6 7 8 9 10 11 11 12 13 14 15 16 16 17 17 16 17 17 18 20 23 27 31 37 41 45 47 46 44 41 38 36 36 38 39 40 41 42 42 42 41 40 40 40 41 42 42 40 38 37 39 40 41 41 41 41 41 40 39 38 38 38 38 38 39 41 42 43 44 45 45 45 45 45
5 5 6 6 6 6 6 5 5 4 4 4 4 5 7 8 9 10 11 12 13 14 15 16 17 17 16 16 16 17 19 22 24 26 29 34 39 44 46 46 45 43 40 37 37 38 39 40 42 42 42 42 42 42 42 42 41 41 42 41 40 39 40 41 41 42 42 42 41 41 40 39 39 38 38 38 38 39 41 43 44 45 45 44 44 45
4 4 5 5 5 5 5 5 4 4 3 3 3 4 6 7 9 10 11 12 13 14 15 15 16 17 17 17 17 18 20 21 22 24 27 32 37 41 44 46 46 45 41 38 37 38 40 41 42 43 43 43 44 45 45 44 42 41 42 41 41 40 41 42 42 43 43 42 42 41 40 40 40 40 40 38 37 38 40 42 44 45 45 44 44 45
3 3 4 4 4 4 3 3 3 3 2 2 2 3 4 6 8 10 11 12 13 14 14 15 16 17 18 18 18 19 19 20 21 23 26 30 35 39 42 45 47 46 44 39 37 38 41 42 43 44 44 45 47 48 47 46 44 42 42 42 41 42 42 43 44 44 44 43 43 42 40 40 40 41 42 41 39 38 39 41 43 45 45 45 44 44
2 2 3 3 3 3 3 2 2 2 2 2 1 2 3 5 7 9 10 12 13 14 15 16 17 18 18 19 19 19 19 20 21 23 26 29 33 37 41 44 46 47 46 41 37 37 40 42 44 45 47 48 49 50 49 47 45 44 43 42 42 43 44 45 45 45 45 44 43 42 41 40 40 42 43 44 43 41 39 39 40 42 43 43 42 42
1 2 2 3 3 3 3 2 2 2 2 2 1 1 2 4 6 8 9 11 12 13 15 16 17 18 19 19 19 20 20 21 22 23 25 28 32 36 40 42 45 47 46 42 38 36 37 40 42 44 46 48 50 51 50 48 47 45 44 44 43 44 46 46 47 46 46 45 44 43 42 41 40 41 43 45 47 45 41 37 36 38 39 39 40 40
0 1 2 2 2 2 2 2 2 2 3 3 2 1 1 3 5 7 9 10 11 13 14 15 17 18 19 20 21 21 21 21 22 23 25 27 30 34 38 41 43 45 46 44 40 36 35 37 39 41 43 46 49 50 51 50 48 47 46 45 46 47 48 48 48 47 46 45 44 44 43 41 41 41 42 44 47 48 45 41 37 35 35 36 37 38
1 1 1 2 1 1 1 1 2 3 4 4 4 2 0 2 4 6 8 9 11 12 14 15 17 18 20 21 22 22 22 22 22 23 25 27 29 32 35 39 42 43 44 44 42 38 35 34 35 37 40 44 46 47 50 51 50 48 47 47 48 49 50 49 49 48 47 46 45 44 43 42 41 41 41 42 45 47 48 46 43 39 37 37 36 36
1 1 1 1 1 1 1 2 3 4 5 5 5 4 2 1 4 6 8 9 10 12 13 15 17 19 21 23 23 24 24 24 24 25 26 28 30 31 33 37 39 41 43 44 44 41 36 32 32 34 38 42 43 43 45 50 51 50 49 49 50 50 50 50 50 49 49 48 47 45 44 43 43 42 41 41 43 45 47 47 47 45 43 42 40 39
1 1 1 1 1 1 2 3 4 5 6 7 6 4 2 1 3 6 8 9 10 11 13 15 17 19 21 23 24 25 25 25 25 26 28 29 30 30 31 35 38 39 41 43 45 44 39 33 31 32 36 40 41 40 40 47 51 52 51 51 51 52 52 53 52 51 50 49 48 47 46 45 44 43 42 42 42 43 44 46 47 47 47 46 45 43
0 0 0 1 2 3 4 5 5 6 7 7 7 5 2 1 3 6 8 9 11 12 13 14 16 19 21 23 25 26 26 26 27 28 29 31 30 29 30 33 36 38 38 41 44 45 43 37 32 30 33 37 38 38 38 43 49 52 53 53 53 54 55 55 54 53 52 51 50 49 47 46 45 44 43 42 41 42 42 44 45 46 47 47 46 45
1 1 1 2 3 4 5 5 6 7 8 8 7 5 2 1 3 5 7 9 11 12 13 15 17 19 21 23 25 26 27 28 28 30 32 33 32 31 30 32 33 34 36 39 42 44 43 40 36 33 32 34 37 37 35 38 45 51 54 55 56 56 56 55 55 54 54 53 51 50 49 48 46 45 44 43 42 42 42 42 43 44 45 45 45 44
1 1 2 2 4 5 6 6 7 7 8 8 7 5 2 1 3 5 7 9 11 13 14 15 17 19 21 23 25 27 28 28 30 32 34 35 34 32 31 32 32 32 33 36 39 42 42 41 38 35 32 33 36 37 35 35 42 49 53 56 57 57 57 56 55 55 54 54 53 52 50 49 47 46 44 44 43 42 42 41 41 41 42 42 42 41
2 2 2 3 4 5 6 6 7 8 9 9 7 5 2 0 2 4 6 9 11 13 15 16 17 19 21 23 25 27 28 30 31 34 36 37 35 33 32 33 33 32 32 34 37 39 41 41 39 36 33 34 36 37 35 35 39 45 51 55 57 57 57 56 56 55 55 54 53 52 51 50 48 47 46 44 43 42 41 40 39 39 39 39 39 38
2 2 3 3 4 5 6 7 8 9 9 9 7 5 2 0 2 4 6 8 11 13 14 16 17 19 21 23 26 28 29 31 32 35 37 37 35 32 31 33 34 35 34 34 36 38 39 40 39 37 35 35 36 37 36 35 37 42 49 53 55 56 56 56 56 55 54 53 52 52 51 50 49 48 46 44 43 41 40 39 38 37 37 37 36 36
3 2 3 3 4 5 6 7 8 9 10 9 8 5 2 1 2 3 5 7 10 12 13 15 17 19 21 23 26 28 30 32 34 36 38 37 34 31 31 33 35 36 37 37 37 38 39 39 39 38 36 35 36 37 37 36 36 39 45 50 53 54 55 55 55 54 53 53 53 52 51 50 49 48 46 44 43 42 40 39 37 36 36 35 34 34
3 3 3 3 4 6 6 7 8 9 10 9 8 5 2 1 2 3 4 6 8 10 11 13 15 18 21 23 26 28 30 33 35 37 38 36 33 32 32 33 34 35 37 38 39 39 39 40 39 38 37 35 35 36 37 37 36 38 42 47 50 52 53 53 53 53 53 53 53 52 51 50 49 47 46 45 43 42 40 39 37 36 35 34 34 33
4 3 3 4 5 5 6 7 8 9 10 10 8 5 2 1 2 3 4 5 6 8 9 11 14 17 20 23 26 29 31 34 36 38 38 35 33 32 33 34 34 34 35 37 39 39 40 40 40 39 37 36 36 37 38 38 37 38 40 45 48 50 51 51 52 52 53 53 53 52 51 50 49 48 46 45 44 43 41 39 38 36 35 35 34 34
Wind_Direction
219 216 215 215 216 218 221 222 223 223 224 225 227 228 228 226 222 217 214 214 217 223 229 230 230 228 226 222 218 213 208 205 205 205 204 202 201 199 197 197 197 197 198 198 197 197 196 196 196 196 197 198 198 199 200 201 202 204 205 206 205 205 205 204 204 204 207 210 212 210 205 199 196 196 196 197 200 202 203 204 206 208 209 210 210 211
231 220 215 214 215 217 220 222 222 223 223 225 227 229 230 228 225 220 216 214 214 218 224 229 232 232 231 228 224 219 213 209 206 206 205 205 204 204 202 200 199 198 197 197 198 198 198 197 196 196 197 198 199 199 200 201 202 204 205 206 207 207 206 205 202 200 200 201 202 204 204 202 198 195 194 195 196 198 200 203 206 208 210 210 211 212
231 218 212 211 213 215 219 221 222 223 223 224 226 228 229 229 226 222 217 215 213 214 217 223 229 233 233 232 229 225 220 215 212 209 208 207 207 207 206 204 202 200 197 197 198 199 200 199 197 196 197 198 199 200 200 201 202 203 205 206 207 208 208 208 205 202 200 199 199 201 204 204 202 199 198 198 198 198 200 204 207 210 211 212 212 213
225 215 210 209 211 214 217 220 221 222 223 224 226 228 229 229 226 222 218 214 212 212 213 216 222 230 234 235 233 231 227 224 220 216 213 210 209 210 210 208 205 202 199 198 198 199 200 200 198 196 196 198 199 200 200 201 202 203 204 206 207 208 209 209 208 205 201 199 200 201 202 204 204 203 202 203 203 203 204 207 210 212 214 214 215 215
221 212 204 204 209 213 216 218 220 221 222 223 225 227 228 228 226 223 218 214 211 210 210 211 215 223 231 235 236 235 233 231 228 225 221 216 214 214 214 212 208 205 202 200 198 198 199 198 198 197 197 198 198 199 200 201 202 203 204 205 207 208 209 210 210 208 205 202 201 201 202 203 204 204 204 204 205 206 208 210 212 214 216 217 217 217
218 204 193 197 205 210 212 215 218 220 221 222 224 225 226 226 225 222 218 214 211 210 209 209 211 216 225 232 236 237 236 235 234 231 228 225 221 219 220 218 213 208 204 202 201 200 199 198 197 197 197 198 198 199 200 201 202 202 203 205 206 207 208 209 209 209 207 205 203 203 203 204 205 205 206 206 207 208 209 212 214 216 217 218 218 218
211 194 183 192 200 204 205 208 212 215 217 220 222 223 224 224 223 220 216 213 210 209 208 208 209 212 219 228 234 237 238 237 236 235 233 230 227 225 225 224 218 211 206 204 203 203 201 199 197 197 197 198 199 200 200 201 202 202 203 204 205 206 207 208 208 209 208 207 205 205 205 205 206 207 208 208 209 209 210 212 214 216 218 220 220 220
200 186 179 186 194 197 199 203 207 210 212 214 217 220 222 223 222 219 216 212 209 208 207 207 208 210 215 222 230 235 238 238 237 236 235 233 230 228 227 226 222 215 209 206 205 206 205 202 200 198 198 198 200 201 202 202 202 203 203 204 205 206 207 207 208 208 208 207 207 206 206 207 208 209 210 211 210 210 211 214 216 217 219 220 221 221
196 185 179 179 181 186 192 198 202 205 207 209 211 215 217 219 219 217 214 211 209 207 206 205 205 207 210 215 222 230 235 236 236 236 235 233 231 228 225 224 222 217 210 207 207 208 208 206 203 201 200 200 201 202 203 204 204 204 204 205 205 206 207 207 208 208 208 208 208 207 208 208 210 212 213 213 212 212 213 214 216 218 219 220 221 221
196 188 182 175 173 174 180 188 195 200 201 203 206 209 212 214 215 215 212 209 208 206 205 204 204 205 206 209 215 222 230 233 235 235 234 233 230 227 224 221 219 215 210 207 208 210 210 209 208 206 205 204 203 204 206 206 206 207 207 207 207 207 207 208 208 209 209 209 209 209 209 209 211 213 214 215 214 213 213 215 216 217 218 219 220 221
196 190 185 178 171 168 170 176 186 192 195 197 201 205 209 211 212 211 210 208 207 206 204 203 202 203 203 205 209 216 224 228 232 234 234 233 231 227 223 219 215 212 208 206 208 211 212 212 211 209 208 208 208 209 210 211 211 211 211 210 210 209 209 209 210 210 210 210 210 210 210 210 211 213 214 215 215 214 214 214 214 214 215 216 217 219
196 192 189 184 176 169 167 170 179 188 192 195 198 203 208 211 211 209 207 207 206 205 204 202 201 201 202 203 206 210 217 223 227 230 232 232 231 227 223 218 214 210 207 205 205 208 212 213 213 212 211 211 212 213 214 215 216 215 214 213 212 212 211 211 211 211 211 211 211 211 210 211 212 213 214 214 214 214 214 213 212 210 210 212 214 216
197 194 193 190 184 176 171 172 178 187 193 196 198 200 203 206 206 205 204 205 205 204 204 202 201 200 201 202 204 205 209 216 222 226 228 229 229 227 223 219 214 210 207 206 205 205 207 209 210 211 211 212 213 214 215 216 216 215 215 214 214 213 213 212 212 212 212 212 212 212 211 212 212 213 214 214 214 213 213 213 211 209 209 211 213 215
196 195 195 195 193 186 179 178 181 186 191 194 196 198 200 200 200 200 201 202 203 204 203 203 201 200 200 201 202 203 204 208 215 221 224 226 227 226 223 219 215 211 209 207 207 207 206 206 206 206 206 207 208 210 212 212 212 212 212 213 213 213 213 213 213 213 213 213 213 212 212 212 212 213 213 214 214 214 213 213 212 211 211 213 216 217
195 196 197 198 197 192 186 184 185 187 189 190 191 193 195 197 199 200 200 201 202 203 202 203 203 202 200 199 200 200 200 201 205 212 218 222 224 223 221 218 216 213 211 209 209 208 208 207 206 204 203 203 204 206 207 208 208 208 209 210 210 211 211 212 212 213 214 214 213 213 212 212 213 213 213 214 214 214 214 213 212 211 212 215 218 219
195 195 197 198 198 194 190 188 187 186 186 186 188 190 194 198 201 201 200 201 201 201 201 202 204 203 202 200 199 198 197 197 199 204 210 214 217 219 218 216 215 214 213 212 211 210 209 209 208 207 205 205 204 203 202 203 204 205 205 206 207 208 209 210 211 212 213 213 213 213 212 212 212 213 213 213 213 213 213 212 212 212 212 215 218 220
193 192 194 196 195 192 189 187 184 182 181 183 187 191 193 194 196 196 196 198 200 200 201 202 203 204 203 201 199 197 197 195 195 198 204 208 212 214 214 213 213 213 214 213 212 212 211 211 211 210 208 207 204 201 198 198 200 202 202 203 204 205 206 207 209 210 212 212 213 212 212 212 212 213 213 213 213 213 213 212 211 211 212 215 217 218
192 189 189 190 189 186 184 182 179 177 177 180 184 186 187 187 188 189 193 196 198 200 202 202 202 203 203 203 201 198 197 196 194 194 199 204 208 210 210 210 210 211 212 213 213 213 213 213 212 211 210 208 204 199 195 194 197 199 200 201 202 203 204 205 207 208 210 211 211 211 211 211 211 212 213 213 213 213 212 212 211 211 212 214 216 216
191 184 183 182 181 179 177 175 174 173 174 176 178 178 178 179 183 188 193 196 198 201 202 202 202 202 203 204 203 201 198 197 195 193 195 201 205 206 207 207 207 209 210 212 213 214 214 214 213 212 210 208 204 199 194 193 194 197 198 199 200 201 202 203 205 207 208 209 210 210 210 210 211 212 212 213 213 213 212 212 211 211 212 214 216 215
187 179 178 176 173 171 171 171 171 171 172 173 172 170 171 175 180 185 189 194 197 200 201 202 202 203 203 205 204 203 200 198 196 194 195 199 202 204 204 204 204 206 208 211 212 214 215 215 214 212 210 208 206 202 196 194 194 195 197 198 199 199 201 202 203 205 207 207 208 208 208 209 210 211 212 212 213 212 212 212 211 212 212 214 215 215
185 179 175 171 167 166 167 170 171 172 172 170 168 168 170 172 174 178 182 187 192 197 200 202 203 204 204 205 204 203 200 199 198 196 195 197 200 203 203 202 202 204 207 210 212 214 215 216 215 212 209 208 207 205 200 196 194 194 196 197 198 199 199 200 202 203 205 206 206 207 207 208 209 210 211 212 212 212 211 211 211 212 213 214 216 216
184 179 174 170 168 167 168 171 173 173 172 170 169 169 169 169 170 171 176 181 187 193 197 201 204 205 205 205 204 202 200 200 200 198 195 194 197 202 203 202 201 203 206 209 212 215 216 217 217 214 211 209 208 206 203 198 195 193 194 196 197 198 199 199 200 202 203 204 204 205 206 206 207 209 210 211 211 211 210 211 212 212 213 215 216 216
185 179 175 174 173 173 173 173 173 174 174 174 173 172 170 169 168 168 171 177 183 188 193 198 202 204 205 205 205 203 201 201 201 200 197 193 195 199 203 202 202 203 205 208 211 214 217 218 219 218 215 211 209 208 206 202 197 193 192 194 196 198 199 200 200 200 201 202 203 204 205 205 206 207 208 209 209 209 209 210 211 213 214 215 216 215
186 180 176 176 177 178 177 173 172 174 177 179 178 176 174 173 172 172 173 176 179 184 189 194 199 202 205 206 205 204 203 202 202 202 200 196 195 196 200 201 203 204 205 208 210 213 216 218 220 220 219 216 212 209 208 205 200 194 190 192 195 198 200 200 200 200 200 201 202 203 204 204 205 206 207 208 208 208 208 209 211 213 214 214 215 214
184 181 176 176 178 179 178 172 171 173 178 180 180 179 178 179 179 179 179 181 182 185 188 191 196 201 205 206 206 205 204 203 203 203 203 200 197 196 198 201 203 204 206 208 209 212 215 217 220 221 222 221 218 214 211 208 203 197 190 190 194 198 200 200 200 200 200 200 201 202 203 204 204 205 206 207 207 207 207 209 211 213 214 214 213 213
179 178 175 175 177 178 176 170 169 173 177 180 181 182 183 183 183 182 184 185 186 188 189 191 194 199 203 204 205 206 206 205 204 205 205 203 198 196 199 201 203 204 206 208 209 212 214 217 219 221 222 223 223 221 216 212 207 201 193 190 194 198 200 201 201 200 200 199 200 201 202 203 204 205 206 206 206 206 207 208 211 212 213 213 212 211
171 171 170 171 173 174 172 169 170 173 177 181 185 187 188 187 186 185 186 187 187 188 187 188 191 195 199 202 205 206 207 206 205 205 206 205 201 199 200 201 203 204 206 208 209 211 213 216 217 219 221 223 225 225 222 217 211 205 196 191 194 199 201 201 201 201 200 199 199 200 202 203 203 204 205 206 206 206 206 208 210 212 212 211 210 209
160 160 159 160 163 165 165 166 169 173 179 184 188 191 192 191 191 191 191 190 188 188 188 189 190 192 197 201 204 206 206 205 206 206 206 206 206 203 201 201 202 203 205 208 209 211 213 214 216 218 219 220 223 224 224 220 215 208 200 194 195 199 201 202 201 201 200 199 199 200 201 202 203 204 205 205 205 206 206 208 210 211 211 210 209 208
151 150 149 150 153 156 159 163 168 174 180 185 189 192 195 196 196 196 193 190 190 191 192 192 193 195 199 202 203 204 204 205 206 206 206 208 209 208 204 201 201 202 205 208 210 211 212 214 215 216 217 218 219 221 223 220 216 209 201 196 197 200 202 202 202 201 201 199 199 199 201 202 203 204 205 205 205 206 206 208 210 211 211 210 208 207
142 143 144 146 149 153 156 161 167 173 179 184 188 192 195 198 198 196 192 191 192 193 193 192 194 197 201 203 203 203 205 207 207 206 206 208 211 210 205 201 200 201 204 207 210 211 212 213 214 214 215 215 216 218 220 219 215 209 202 198 199 202 203 203 202 201 200 199 198 198 200 201 202 204 205 205 205 206 207 208 210 211 211 209 208 207
131 134 138 143 148 153 156 160 165 170 175 180 184 188 191 193 193 192 191 193 194 193 191 190 193 197 201 203 204 205 206 208 208 206 205 208 210 210 206 203 201 201 202 205 208 210 212 213 213 213 214 214 214 216 217 217 214 209 203 200 201 204 204 204 202 201 200 199 198 198 199 200 201 203 204 204 205 206 207 208 210 211 211 210 208 207
120 125 132 139 145 150 153 157 162 167 172 177 180 183 185 186 187 189 192 194 194 191 189 190 193 198 203 205 205 206 207 207 207 206 205 207 209 209 206 205 203 202 201 203 206 209 211 213 213 212 213 213 213 214 215 216 214 209 204 202 203 205 206 205 202 200 199 199 198 198 199 200 201 202 203 204 205 206 207 208 209 211 211 210 209 208
112 119 127 135 141 145 148 151 156 162 168 174 178 181 183 183 185 188 191 191 190 189 189 191 194 199 203 206 207 206 206 207 207 207 206 207 208 208 207 206 205 204 202 204 206 208 210 212 213 212 212 212 213 213 213 214 213 210 206 203 204 206 207 206 204 201 200 199 199 199 199 200 201 201 202 203 204 206 207 208 209 210 211 211 210 209
105 114 123 131 137 140 143 144 148 154 162 172 178 181 183 184 186 187 187 186 187 188 190 191 194 197 201 204 205 205 206 207 208 208 207 206 207 207 207 206 205 205 204 205 206 208 210 212 213 213 212 212 211 211 212 212 211 209 207 204 204 207 209 208 206 203 201 200 200 200 200 200 200 200 201 202 203 205 207 208 209 210 211 212 211 210
100 109 117 125 132 136 139 141 143 147 154 165 177 182 184 185 185 186 185 184 185 187 189 191 193 195 198 200 202 203 205 207 207 207 205 205 206 207 207 207 206 205 206 206 205 206 208 210 212 212 212 211 209 209 210 211 210 209 207 205 205 207 209 209 208 205 203 201 201 201 201 200 199 199 199 200 201 204 206 207 208 209 211 211 212 212
87 95 102 111 119 123 128 132 135 136 141 154 171 182 186 186 186 185 184 184 185 185 187 189 192 195 198 200 202 203 206 207 207 205 204 204 205 206 206 206 206 206 207 206 204 203 205 207 210 211 211 209 207 206 207 209 210 209 207 206 205 206 208 209 209 207 205 203 202 202 202 200 199 198 198 198 199 202 204 206 207 208 210 210 212 213
70 71 76 83 89 95 102 108 111 111 111 123 151 176 186 187 186 185 184 184 184 184 185 187 190 193 196 200 203 205 206 206 206 206 205 204 204 204 205 205 206 206 208 206 203 200 201 203 205 207 208 208 207 205 204 207 209 209 208 206 206 206 208 210 209 208 206 204 204 203 202 201 200 199 198 198 198 199 200 202 204 206 208 210 211 213
53 50 49 53 55 58 63 64 64 60 61 66 102 158 179 185 185 184 183 183 183 183 184 186 189 191 194 197 201 204 206 205 205 206 205 204 203 203 203 204 205 206 208 206 202 197 196 197 199 202 204 205 205 205 205 208 210 210 209 207 206 206 208 210 210 208 206 205 205 204 204 203 202 201 200 199 199 199 198 197 198 201 204 206 208 210
32 27 29 29 28 29 29 28 26 26 22 22 33 127 171 179 180 181 181 181 181 182 184 186 188 191 193 195 199 202 204 204 204 204 203 203 202 202 202 203 204 206 207 206 202 196 193 193 194 196 198 199 201 204 207 210 212 212 211 208 206 207 208 209 209 208 207 206 205 205 205 205 204 203 202 202 202 203 202 197 194 194 197 200 203 205
270 349 7 11 17 21 24 18 7 360 356 358 1 7 171 177 177 178 179 179 180 181 183 185 188 190 192 194 198 201 203 203 201 200 200 200 201 201 202 202 203 205 206 206 202 198 193 192 192 193 194 195 197 201 206 210 213 214 212 209 207 207 208 209 209 208 207 206 206 205 205 206 206 205 204 204 205 207 207 205 201 197 196 197 200 202
262 312 341 1 22 50 52 359 334 340 347 352 353 351 314 183 179 180 180 180 181 181 183 185 187 190 192 194 197 199 201 201 199 198 198 198 198 200 202 203 203 204 205 205 204 200 196 193 192 191 191 192 194 198 204 208 210 212 212 210 208 207 207 208 208 208 207 206 206 206 206 206 206 207 207 206 207 208 210 210 209 207 204 203 203 204
252 288 326 359 20 21 317 315 329 343 353 356 355 351 338 202 186 184 183 184 184 183 184 185 187 190 192 194 196 198 199 199 197 196 196 195 195 197 202 204 205 205 205 205 205 204 201 197 193 192 191 190 191 194 200 205 207 209 210 210 209 208 207 207 208 208 207 206 206 206 206 206 207 207 208 207 208 209 210 211 212 213 212 211 211 211
230 270 330 351 336 323 322 333 343 353 358 358 355 351 339 214 190 187 188 188 188 187 186 187 188 190 192 194 196 197 198 198 196 194 193 190 189 192 199 205 207 206 205 205 206 207 206 203 198 195 193 191 189 190 196 202 204 206 208 208 208 207 207 207 208 208 207 206 206 206 205 206 207 208 208 208 208 209 210 210 212 214 216 217 217 217
166 267 335 330 328 333 341 347 354 358 358 356 353 350 340 205 188 188 190 191 192 191 190 189 189 190 193 195 196 197 197 197 195 192 188 185 182 186 196 204 207 208 207 206 206 208 209 208 206 203 199 195 190 189 194 199 203 204 205 206 206 206 206 207 208 207 206 206 206 206 206 206 207 208 209 209 210 210 210 210 211 213 215 217 219 220
90 60 348 336 338 342 346 351 356 358 357 355 354 352 348 190 184 187 191 192 194 194 193 191 191 192 194 195 196 196 196 196 194 190 186 182 180 184 193 202 207 208 208 207 207 209 210 210 211 210 206 200 194 190 191 197 202 203 204 204 203 204 205 207 208 207 207 206 206 206 206 206 207 207 208 209 210 210 211 211 212 212 214 216 219 221
70 39 356 347 347 347 349 352 355 356 356 356 355 355 356 173 182 187 191 194 195 195 195 194 194 195 196 196 195 196 196 195 193 189 186 184 183 186 191 197 203 207 208 207 207 209 210 211 212 213 211 206 199 193 190 196 201 203 203 203 202 202 203 204 206 207 207 207 206 206 206 206 206 206 207 208 209 210 211 212 212 213 214 216 217 219
47 23 1 353 352 350 351 352 353 354 356 357 358 358 1 174 185 191 194 195 195 195 195 196 196 197 197 196 195 195 195 195 192 189 187 187 188 189 191 193 197 201 204 205 206 208 209 210 211 212 211 208 203 198 194 195 200 203 203 203 202 201 201 202 203 205 206 206 205 205 205 205 204 205 206 207 208 209 210 211 212 212 213 214 215 215
35 19 5 356 352 349 348 349 352 355 357 359 359 359 355 232 202 201 200 196 194 193 193 195 196 198 198 197 196 195 195 194 192 190 189 190 191 192 193 191 192 194 198 200 202 204 207 208 209 210 210 209 205 201 197 196 199 202 203 203 202 201 201 201 202 203 204 204 205 205 205 204 204 204 205 205 206 207 209 209 209 209 209 209 210 210
30 17 2 352 349 348 349 351 353 356 358 359 359 357 344 263 217 211 205 197 192 190 191 193 196 198 199 198 197 195 194 193 191 191 191 192 194 195 195 192 190 190 193 195 198 200 202 205 206 208 208 208 206 203 199 198 199 202 203 203 202 201 201 201 201 202 203 203 204 204 204 204 204 204 204 204 205 206 207 208 207 206 205 204 203 203
26 12 356 346 346 350 354 355 357 357 358 358 358 356 340 270 225 214 206 196 190 188 189 193 196 198 199 198 197 195 194 192 191 191 192 194 196 198 199 196 192 190 192 194 195 197 199 200 202 204 206 206 205 203 201 199 200 202 203 203 202 201 201 201 201 201 202 203 203 203 203 203 203 203 203 203 204 205 206 205 205 203 201 199 198 198
21 9 356 349 350 354 359 360 359 359 359 359 359 355 338 264 223 211 204 195 189 187 189 194 197 199 199 198 196 195 193 192 191 191 192 194 196 199 200 198 195 194 194 195 196 196 197 198 199 201 203 204 204 203 202 201 200 202 203 202 201 201 201 201 201 202 202 202 203 203 203 203 202 202 202 203 203 203 203 203 202 201 199 197 195 195